Airfield :
LOGIN :

Register | Disclaimer

   EN    FR    IT 

 










Legend :    VFR   Marginal VFR   IFR   Intensive IFR   Very Intensive IFR
Visi :
Ceiling :
>= 8 km
>= 3000ft
5 to 8 km
1000 to 3000 ft
1500m to 5 km
500 to 1000 ft
800 to 1500m
200 to 500 ft
< 800m
< 200 ft
Symbols :   Thunderstorms  Fog  Heavy snow  Heavy precipitations  Wind > 20 kt
SIGMETs :     Misc.  Thunderstorms  Icing  Turbulence  Mountain Waves  Volcanic Ashes







- Airport Elevation : 330 ft
- IATA code : LVA
- Download approach charts


LFOV - Laval-Entrammes

EXPIRED METARs :
  • 241430Z AUTO 25010KT 180V280 CAVOK 24/12 Q1018
  • 241400Z AUTO 25008KT 210V300 9999 FEW048 OVC062 24/12 Q1018
  • 241330Z AUTO 30007KT 270V340 9999 SCT041 SCT048 OVC062 23/12 Q1018
  • 241300Z AUTO 24008KT 190V280 9999 FEW040 OVC064 24/13 Q1019
  • 241230Z AUTO 24008KT 200V280 9999 SCT040 BKN048 BKN060 23/12 Q1019
  • 241200Z AUTO 26007KT 210V310 9999 SCT040 OVC058 22/12 Q1019

TAF N/A
No reported NOTAMs for that airfield.



MET'MAP, your aeronautical weather chart ! - Copyright ORBIFLY December 2007 - Disclaimer

ORBIFLY MET'MAP TEAM :

Programming & Development : Alexandra Zaïnal
Concept & Development : Baudouin d'Aumeries
Co-Development & Prog : Marc-Olivier Méhu
Technical & hardware support : Manuel Goepfert

Contact : metmap@orbifly.com




SOURCES & CREDITS :

   NOAA